Time,TemperatureF,DewpointF,PressureIn,WindDirection,WindDirectionDegrees,WindSpeedMPH,WindSpeedGustMPH,Humidity,HourlyPrecipIn,Conditions,Clouds,dailyrainin,SoftwareType,DateUTC
2013-06-29 00:05:00,57.0,56.0,29.75,NE,43,0.0,-999.0,96,-99.99,,,0.00,weatherlink.com 1.10,2013-06-29 04:05:00,
2013-06-29 00:20:00,57.0,56.0,29.75,NE,43,0.0,-999.0,96,-99.99,,,0.01,weatherlink.com 1.10,2013-06-29 04:20:00,
2013-06-29 00:35:00,57.2,56.0,29.75,NE,43,0.0,-999.0,96,-99.99,,,0.01,weatherlink.com 1.10,2013-06-29 04:35:00,
2013-06-29 00:50:00,57.4,56.0,29.75,NE,42,0.0,-999.0,96,-99.99,,,0.02,weatherlink.com 1.10,2013-06-29 04:50:00,
2013-06-29 01:04:00,57.3,56.0,29.74,NE,43,0.0,-999.0,96,-99.99,,,0.02,weatherlink.com 1.10,2013-06-29 05:04:00,
2013-06-29 01:20:00,57.3,56.0,29.74,NE,42,0.0,-999.0,96,-99.99,,,0.02,weatherlink.com 1.10,2013-06-29 05:20:00,
2013-06-29 01:35:00,57.5,56.0,29.74,NE,43,0.0,-999.0,96,-99.99,,,0.02,weatherlink.com 1.10,2013-06-29 05:35:00,
2013-06-29 01:50:00,58.0,57.0,29.74,NE,43,0.0,-999.0,96,-99.99,,,0.02,weatherlink.com 1.10,2013-06-29 05:50:00,
2013-06-29 02:05:00,57.9,57.0,29.74,NNE,33,0.0,-999.0,96,-99.99,,,0.02,weatherlink.com 1.10,2013-06-29 06:05:00,
2013-06-29 02:20:00,57.8,57.0,29.74,NNE,33,0.0,-999.0,96,-99.99,,,0.02,weatherlink.com 1.10,2013-06-29 06:20:00,
2013-06-29 02:35:00,57.7,57.0,29.74,NNE,33,0.0,-999.0,96,-99.99,,,0.02,weatherlink.com 1.10,2013-06-29 06:35:00,
2013-06-29 02:58:00,57.7,57.0,29.75,NNE,33,0.0,-999.0,96,-99.99,,,0.02,weatherlink.com 1.10,2013-06-29 06:58:00,
2013-06-29 03:04:00,57.7,57.0,29.74,NNE,33,0.0,-999.0,96,-99.99,,,0.03,weatherlink.com 1.10,2013-06-29 07:04:00,
2013-06-29 03:19:00,57.2,56.0,29.75,NE,34,3.0,-999.0,96,-99.99,,,0.03,weatherlink.com 1.10,2013-06-29 07:19:00,
2013-06-29 03:34:00,56.4,55.0,29.75,NE,42,0.0,-999.0,96,-99.99,,,0.03,weatherlink.com 1.10,2013-06-29 07:34:00,
2013-06-29 03:49:00,56.3,55.0,29.75,NE,42,1.0,-999.0,96,-99.99,,,0.03,weatherlink.com 1.10,2013-06-29 07:49:00,
2013-06-29 04:04:00,56.6,56.0,29.74,NE,42,0.0,-999.0,96,-99.99,,,0.03,weatherlink.com 1.10,2013-06-29 08:04:00,
2013-06-29 04:19:00,56.8,56.0,29.74,NE,42,0.0,-999.0,96,-99.99,,,0.03,weatherlink.com 1.10,2013-06-29 08:19:00,
2013-06-29 04:34:00,56.7,56.0,29.74,NE,42,0.0,-999.0,96,-99.99,,,0.03,weatherlink.com 1.10,2013-06-29 08:34:00,
2013-06-29 04:49:00,56.5,55.0,29.74,NE,42,0.0,-999.0,96,-99.99,,,0.03,weatherlink.com 1.10,2013-06-29 08:49:00,
2013-06-29 05:04:00,56.6,56.0,29.74,NE,42,0.0,-999.0,96,-99.99,,,0.03,weatherlink.com 1.10,2013-06-29 09:04:00,
2013-06-29 05:19:00,56.6,56.0,29.75,NE,42,0.0,-999.0,96,-99.99,,,0.03,weatherlink.com 1.10,2013-06-29 09:19:00,
2013-06-29 05:34:00,56.7,56.0,29.75,NE,42,0.0,-999.0,96,-99.99,,,0.03,weatherlink.com 1.10,2013-06-29 09:34:00,
2013-06-29 05:49:00,56.9,56.0,29.75,NE,42,0.0,-999.0,96,-99.99,,,0.03,weatherlink.com 1.10,2013-06-29 09:49:00,
2013-06-29 06:04:00,56.9,56.0,29.75,NE,42,0.0,-999.0,96,-99.99,,,0.04,weatherlink.com 1.10,2013-06-29 10:04:00,
2013-06-29 06:19:00,57.0,56.0,29.75,NE,42,0.0,-999.0,96,-99.99,,,0.04,weatherlink.com 1.10,2013-06-29 10:19:00,
2013-06-29 06:34:00,57.0,56.0,29.75,NE,42,0.0,-999.0,96,-99.99,,,0.04,weatherlink.com 1.10,2013-06-29 10:34:00,
2013-06-29 06:50:00,57.0,56.0,29.75,NE,42,0.0,-999.0,96,-99.99,,,0.04,weatherlink.com 1.10,2013-06-29 10:50:00,
2013-06-29 07:04:00,57.2,56.0,29.76,NE,42,0.0,-999.0,96,-99.99,,,0.04,weatherlink.com 1.10,2013-06-29 11:04:00,
2013-06-29 07:19:00,57.3,56.0,29.76,NE,42,1.0,-999.0,96,-99.99,,,0.04,weatherlink.com 1.10,2013-06-29 11:19:00,
2013-06-29 07:34:00,57.4,57.0,29.76,NE,42,0.0,-999.0,97,-99.99,,,0.04,weatherlink.com 1.10,2013-06-29 11:34:00,
2013-06-29 07:49:00,57.4,57.0,29.77,South,183,0.0,-999.0,97,-99.99,,,0.04,weatherlink.com 1.10,2013-06-29 11:49:00,
2013-06-29 08:04:00,57.4,56.0,29.77,South,183,0.0,-999.0,96,-99.99,,,0.04,weatherlink.com 1.10,2013-06-29 12:04:00,
2013-06-29 08:19:00,57.6,57.0,29.77,NE,48,0.0,-999.0,97,-99.99,,,0.04,weatherlink.com 1.10,2013-06-29 12:19:00,
2013-06-29 08:34:00,57.8,57.0,29.78,NE,48,0.0,-999.0,96,-99.99,,,0.04,weatherlink.com 1.10,2013-06-29 12:34:00,
2013-06-29 08:50:00,58.0,57.0,29.78,NE,48,0.0,-999.0,97,-99.99,,,0.04,weatherlink.com 1.10,2013-06-29 12:50:00,
2013-06-29 09:04:00,57.9,57.0,29.78,NE,48,1.0,-999.0,96,-99.99,,,0.04,weatherlink.com 1.10,2013-06-29 13:04:00,
2013-06-29 09:20:00,57.6,57.0,29.79,NE,48,0.0,-999.0,96,-99.99,,,0.04,weatherlink.com 1.10,2013-06-29 13:20:00,
2013-06-29 09:35:00,57.3,56.0,29.79,NE,48,0.0,-999.0,96,-99.99,,,0.04,weatherlink.com 1.10,2013-06-29 13:35:00,
2013-06-29 09:50:00,57.4,56.0,29.80,NE,48,1.0,-999.0,96,-99.99,,,0.04,weatherlink.com 1.10,2013-06-29 13:50:00,
2013-06-29 10:05:00,57.4,56.0,29.80,NE,48,0.0,-999.0,95,-99.99,,,0.04,weatherlink.com 1.10,2013-06-29 14:05:00,
2013-06-29 10:20:00,57.3,56.0,29.80,ENE,74,0.0,-999.0,94,-99.99,,,0.04,weatherlink.com 1.10,2013-06-29 14:20:00,
2013-06-29 10:35:00,57.0,55.0,29.80,ENE,69,0.0,-999.0,93,-99.99,,,0.04,weatherlink.com 1.10,2013-06-29 14:35:00,
2013-06-29 10:50:00,57.1,55.0,29.81,ENE,70,0.0,-999.0,93,-99.99,,,0.04,weatherlink.com 1.10,2013-06-29 14:50:00,
2013-06-29 11:05:00,57.2,56.0,29.81,ENE,70,0.0,-999.0,94,-99.99,,,0.04,weatherlink.com 1.10,2013-06-29 15:05:00,
2013-06-29 11:20:00,57.7,55.0,29.81,NE,38,1.0,-999.0,90,-99.99,,,0.04,weatherlink.com 1.10,2013-06-29 15:20:00,
2013-06-29 11:35:00,58.3,56.0,29.82,NE,38,0.0,-999.0,92,-99.99,,,0.04,weatherlink.com 1.10,2013-06-29 15:35:00,
2013-06-29 11:50:00,58.7,55.0,29.82,NE,52,2.0,-999.0,87,-99.99,,,0.04,weatherlink.com 1.10,2013-06-29 15:50:00,
2013-06-29 12:05:00,59.4,57.0,29.82,NE,41,0.0,-999.0,90,-99.99,,,0.04,weatherlink.com 1.10,2013-06-29 16:05:00,
2013-06-29 12:20:00,60.3,55.0,29.83,NE,50,0.0,-999.0,83,-99.99,,,0.04,weatherlink.com 1.10,2013-06-29 16:20:00,
2013-06-29 12:35:00,60.8,56.0,29.82,NE,45,1.0,-999.0,85,-99.99,,,0.04,weatherlink.com 1.10,2013-06-29 16:35:00,
2013-06-29 12:50:00,60.3,55.0,29.83,ENE,57,0.0,-999.0,83,-99.99,,,0.04,weatherlink.com 1.10,2013-06-29 16:50:00,
2013-06-29 13:04:00,61.4,57.0,29.82,ENE,61,0.0,-999.0,84,-99.99,,,0.04,weatherlink.com 1.10,2013-06-29 17:04:00,
2013-06-29 13:20:00,62.2,56.0,29.83,NE,42,1.0,-999.0,80,-99.99,,,0.04,weatherlink.com 1.10,2013-06-29 17:20:00,
2013-06-29 13:35:00,60.5,54.0,29.84,NE,35,4.0,-999.0,80,-99.99,,,0.04,weatherlink.com 1.10,2013-06-29 17:35:00,
2013-06-29 13:50:00,60.2,54.0,29.83,NE,45,0.0,-999.0,79,-99.99,,,0.04,weatherlink.com 1.10,2013-06-29 17:50:00,
2013-06-29 14:05:00,60.4,54.0,29.84,NE,56,6.0,-999.0,80,-99.99,,,0.04,weatherlink.com 1.10,2013-06-29 18:05:00,
2013-06-29 14:20:00,61.0,54.0,29.84,NNE,19,0.0,-999.0,77,-99.99,,,0.04,weatherlink.com 1.10,2013-06-29 18:20:00,
2013-06-29 14:35:00,62.0,54.0,29.84,NNE,15,1.0,-999.0,75,-99.99,,,0.04,weatherlink.com 1.10,2013-06-29 18:35:00,
2013-06-29 14:50:00,62.5,54.0,29.84,ENE,63,4.0,-999.0,73,-99.99,,,0.04,weatherlink.com 1.10,2013-06-29 18:50:00,
2013-06-29 15:05:00,62.0,53.0,29.84,NE,42,2.0,-999.0,72,-99.99,,,0.04,weatherlink.com 1.10,2013-06-29 19:05:00,
2013-06-29 15:20:00,62.0,52.0,29.84,NE,38,0.0,-999.0,70,-99.99,,,0.04,weatherlink.com 1.10,2013-06-29 19:20:00,
2013-06-29 15:35:00,62.2,53.0,29.84,SW,233,1.0,-999.0,73,-99.99,,,0.04,weatherlink.com 1.10,2013-06-29 19:35:00,
2013-06-29 15:50:00,62.9,53.0,29.85,NE,55,2.0,-999.0,69,-99.99,,,0.04,weatherlink.com 1.10,2013-06-29 19:50:00,
2013-06-29 16:05:00,63.0,51.0,29.85,NE,41,0.0,-999.0,65,-99.99,,,0.04,weatherlink.com 1.10,2013-06-29 20:05:00,
2013-06-29 16:20:00,63.1,51.0,29.85,NNE,29,1.0,-999.0,64,-99.99,,,0.04,weatherlink.com 1.10,2013-06-29 20:20:00,
2013-06-29 16:35:00,63.3,50.0,29.86,NNE,26,2.0,-999.0,63,-99.99,,,0.04,weatherlink.com 1.10,2013-06-29 20:35:00,
2013-06-29 16:50:00,62.7,49.0,29.86,NE,48,4.0,-999.0,61,-99.99,,,0.04,weatherlink.com 1.10,2013-06-29 20:50:00,
2013-06-29 17:04:00,63.1,50.0,29.86,ENE,63,0.0,-999.0,63,-99.99,,,0.04,weatherlink.com 1.10,2013-06-29 21:04:00,
2013-06-29 17:20:00,63.2,49.0,29.86,NE,48,3.0,-999.0,60,-99.99,,,0.04,weatherlink.com 1.10,2013-06-29 21:20:00,
2013-06-29 17:35:00,63.2,48.0,29.86,NE,51,1.0,-999.0,59,-99.99,,,0.04,weatherlink.com 1.10,2013-06-29 21:35:00,
2013-06-29 17:50:00,62.9,49.0,29.86,NE,55,4.0,-999.0,61,-99.99,,,0.04,weatherlink.com 1.10,2013-06-29 21:50:00,
2013-06-29 18:05:00,62.9,52.0,29.87,NE,55,0.0,-999.0,68,-99.99,,,0.04,weatherlink.com 1.10,2013-06-29 22:05:00,
2013-06-29 18:20:00,62.8,47.0,29.87,NE,56,0.0,-999.0,57,-99.99,,,0.04,weatherlink.com 1.10,2013-06-29 22:20:00,
2013-06-29 18:35:00,62.2,50.0,29.87,ENE,69,0.0,-999.0,64,-99.99,,,0.04,weatherlink.com 1.10,2013-06-29 22:35:00,
2013-06-29 18:50:00,62.7,49.0,29.87,SW,229,1.0,-999.0,61,-99.99,,,0.04,weatherlink.com 1.10,2013-06-29 22:50:00,
2013-06-29 19:05:00,62.4,50.0,29.87,ENE,68,1.0,-999.0,65,-99.99,,,0.04,weatherlink.com 1.10,2013-06-29 23:05:00,
2013-06-29 19:20:00,62.1,47.0,29.88,ESE,103,0.0,-999.0,58,-99.99,,,0.04,weatherlink.com 1.10,2013-06-29 23:20:00,
2013-06-29 19:35:00,62.3,48.0,29.87,NE,50,0.0,-999.0,59,-99.99,,,0.04,weatherlink.com 1.10,2013-06-29 23:35:00,
2013-06-29 19:50:00,62.2,46.0,29.88,SSW,207,1.0,-999.0,55,-99.99,,,0.04,weatherlink.com 1.10,2013-06-29 23:50:00,
2013-06-29 20:05:00,61.9,48.0,29.88,NE,51,0.0,-999.0,60,-99.99,,,0.04,weatherlink.com 1.10,2013-06-30 00:05:00,
2013-06-29 20:20:00,60.8,47.0,29.88,South,187,1.0,-999.0,60,-99.99,,,0.04,weatherlink.com 1.10,2013-06-30 00:20:00,
2013-06-29 20:35:00,60.4,44.0,29.88,NW,304,1.0,-999.0,55,-99.99,,,0.04,weatherlink.com 1.10,2013-06-30 00:35:00,
2013-06-29 20:50:00,59.9,45.0,29.88,West,280,0.0,-999.0,58,-99.99,,,0.04,weatherlink.com 1.10,2013-06-30 00:50:00,
2013-06-29 21:04:00,59.4,46.0,29.88,West,281,0.0,-999.0,61,-99.99,,,0.04,weatherlink.com 1.10,2013-06-30 01:04:00,
2013-06-29 21:20:00,58.8,46.0,29.89,West,281,0.0,-999.0,63,-99.99,,,0.04,weatherlink.com 1.10,2013-06-30 01:20:00,
2013-06-29 21:35:00,58.0,46.0,29.89,West,280,0.0,-999.0,64,-99.99,,,0.04,weatherlink.com 1.10,2013-06-30 01:35:00,
2013-06-29 21:50:00,57.4,46.0,29.90,West,280,0.0,-999.0,66,-99.99,,,0.04,weatherlink.com 1.10,2013-06-30 01:50:00,
2013-06-29 22:05:00,57.2,45.0,29.90,SSW,198,0.0,-999.0,65,-99.99,,,0.04,weatherlink.com 1.10,2013-06-30 02:05:00,
2013-06-29 22:20:00,57.0,46.0,29.91,SSW,198,0.0,-999.0,68,-99.99,,,0.04,weatherlink.com 1.10,2013-06-30 02:20:00,
2013-06-29 22:35:00,56.2,46.0,29.91,SSW,198,0.0,-999.0,68,-99.99,,,0.04,weatherlink.com 1.10,2013-06-30 02:35:00,
2013-06-29 22:50:00,55.2,46.0,29.91,SSW,198,0.0,-999.0,70,-99.99,,,0.04,weatherlink.com 1.10,2013-06-30 02:50:00,
2013-06-29 23:05:00,54.5,45.0,29.92,SSW,198,0.0,-999.0,71,-99.99,,,0.04,weatherlink.com 1.10,2013-06-30 03:05:00,
2013-06-29 23:20:00,54.1,45.0,29.92,SSW,198,0.0,-999.0,72,-99.99,,,0.04,weatherlink.com 1.10,2013-06-30 03:20:00,
2013-06-29 23:35:00,53.8,45.0,29.92,SSW,198,0.0,-999.0,72,-99.99,,,0.04,weatherlink.com 1.10,2013-06-30 03:35:00,
2013-06-29 23:50:00,53.7,45.0,29.93,SSW,198,0.0,-999.0,73,-99.99,,,0.04,weatherlink.com 1.10,2013-06-30 03:50:00,